{"data":{"norad_id":63047,"epoch":"2026-09-21T21:36:32.752512Z","epoch_age_seconds":44167,"freshness":"FRESH","line1":"1 63047U 25034U   26264.90037908  .00016348  00000+0  53710-3 0  9990","line2":"2 63047  53.1608  66.3105 0001104 102.7830 257.3295 15.31719068 89127","mean_motion":15.31719068,"eccentricity":0.0001104,"inclination_deg":53.1608,"raan_deg":66.3105,"arg_perigee_deg":102.783,"mean_anomaly_deg":257.3295,"bstar":0.0005371,"rev_number":8912,"period_min":94.012017613663,"perigee_km":469.92704535441,"apogee_km":471.43926484465,"semimajor_km":6848.8201550995,"source":"CELESTRAK","updated_at":"2026-09-22T09:00:49.747844Z"}}